Карточка аэропорта URMG

Внимание!
Информация на этой странице в стадии наполнения.
Если вы не увидели какой-то информации, или заметили неточность - пожалуйста сообщите нам!
Спасибо!
Команда RU-STAFF
Название аэропорта Грозный
Название аэропорта (англ.)Grozniy
Превышение545 ft. (166.1 m.)
Координаты43°23.292', 45°41.988'
Высота перехода1900 m
Эшелон переходаFL80
Коды ответчика2410-2417
Зона ОрВДРостов-на-Дону РПИ (URRV)
Данные METARURMG 200600Z 21002MPS 180V280 9999 SCT/// 27/14 Q1006 R08/090070 NOSIG RMK QFE740/0986
Проноз погоды (TAF)URMG 200500Z 2006/2015 25003G08MPS 9999 BKN030 TEMPO 2006/2015 6000 -TSRA BKN016 BKN030CB
NOTAMshow/hide NOTAM
AWOS   TABLE

Информация о ВПП

ВПП Длина ВПП (м.) Покрытие Курс ВПП Частота ILS
082505Асфальтобетон80 
262505Асфальтобетон260108.7

Диспетчерские позиции

Позывной Наименование органа УВД Частота
URMG_R_APPГрозный-Вышка120.200
URMG_TWRГрозный-Старт119.0



Спутниковое изображение